Omaha Offutt, NE

10:00 AM CDT on May 25, 2020 (GMT -0500)
Offutt Air Force Base

Weather History for KOFF - March, 2020

Change the Weather History Date:

Monday, March 30, 2020

  Actual Average Record
Temperature  
Mean Temperature 55 °F -  
Max Temperature 71 °F 54 °F 77 °F (2014)
Min Temperature 39 °F 34 °F 23 °F (2003)
Degree Days  
Heating Degree Days 10    
Growing Degree Days 5 (Base 50)    
Moisture  
Dew Point 32 °F    
Average Humidity 42    
Maximum Humidity 70    
Minimum Humidity 22    
Precipitation  
Precipitation 0.00 in - - ()
Sea Level Pressure  
Sea Level Pressure 30.12 in    
Wind  
Wind Speed 7 mph ()    
Max Wind Speed 12 mph    
Max Gust Speed 17 mph    
Visibility 10.0 miles    
Events      
Averages and records for this station are not official NWS values.
T = Trace of Precipitation, MM = Missing Value Source: Averaged Metar Reports

Daily Weather History Graph

Daily Weather History Graph

Search for Another Location

Airport or City:

Astronomy

Mar. 30, 2020 Rise Set
Actual Time 7:09 AM CDT 7:47 PM CDT
Civil Twilight 6:41 AM CDT 8:14 PM CDT
Nautical Twilight 6:08 AM CDT 8:47 PM CDT
Astronomical Twilight 5:35 AM CDT 9:21 PM CDT
Moon 10:42 AM CDT (3/30) 1:02 AM CDT (3/30)
Length of Visible Light 13h 33m
Length of Day
12h 37m
Waxing Crescent, 33% of the Moon is Illuminated
Mar 30
Waxing Crescent
Apr 1
First Quarter
Apr 7
Full
Apr 14
Last Quarter
Apr 22
New

Hourly Weather History & Observations

Time (CDT) Temp. Windchill Dew Point Humidity Pressure Visibility Wind Dir Wind Speed Gust Speed Precip Events Conditions
2:58 AM 41.0 °F 36.4 °F 30.2 °F 65% 30.15 in 10.0 mi Variable 6.9 mph - N/A   Clear
3:58 AM 41.0 °F 36.4 °F 32.0 °F 70% 30.15 in 10.0 mi Variable 6.9 mph - N/A   Clear
5:56 AM 39.2 °F 34.2 °F 30.2 °F 70% 30.17 in 10.0 mi Variable 6.9 mph - N/A   Clear
6:57 AM 39.2 °F 34.2 °F 30.2 °F 70% 30.17 in 10.0 mi Variable 6.9 mph - N/A   Partly Cloudy
7:55 AM 48.2 °F - 35.6 °F 62% 30.17 in 10.0 mi Variable 6.9 mph - N/A   Partly Cloudy
8:52 AM 57.2 °F - 44.6 °F 63% 30.17 in 10.0 mi Variable 6.9 mph - N/A   Partly Cloudy
10:56 AM 71.6 °F - 35.6 °F 27% 30.22 in 10.0 mi NNE 6.9 mph - N/A   Partly Cloudy
11:56 AM 62.4 °F - 33.6 °F 34% 30.20 in 10.0 mi East 8.1 mph - N/A   Partly Cloudy
1:56 PM 68.7 °F - 35.2 °F 29% 30.12 in 10.0 mi SE 6.9 mph - N/A   Clear
2:56 PM 70.2 °F - 33.6 °F 26% 30.08 in 10.0 mi East 10.4 mph 17.3 mph N/A   Clear
3:56 PM 70.9 °F - 30.2 °F 22% 30.05 in 10.0 mi East 10.4 mph - N/A   Clear
4:56 PM 68.0 °F - 31.8 °F 26% 30.05 in 10.0 mi ESE 11.5 mph - N/A   Overcast
5:56 PM 66.7 °F - 31.6 °F 27% 30.05 in 10.0 mi ESE 11.5 mph - N/A   Overcast
6:56 PM 64.8 °F - 32.5 °F 30% 30.05 in 10.0 mi East 6.9 mph - N/A   Overcast
7:56 PM 60.6 °F - 32.7 °F 35% 30.06 in 10.0 mi East 10.4 mph - N/A   Scattered Clouds
8:56 PM 58.5 °F - 30.9 °F 35% 30.08 in 10.0 mi East 10.4 mph - N/A   Mostly Cloudy
9:56 PM 57.9 °F - 29.7 °F 34% 30.09 in 10.0 mi East 11.5 mph - N/A   Overcast
10:56 PM 56.5 °F - 28.4 °F 34% 30.08 in 10.0 mi East 8.1 mph - N/A   Overcast
11:56 PM 53.1 °F - 28.8 °F 39% 30.09 in 10.0 mi East 3.5 mph - N/A   Overcast